GFSCGP_850_spd_231.txt.gz
Wind_Speed
13 11 14 17 15 16 10 11 8 7 6 9 8 9 1 5 10 13 13 16 18 15 15 14 11 8 6 4 2 4 6 11 14 14 16 18 19 20 22 23 24 22 24 26
8 14 5 9 12 7 12 11 11 7 2 7 12 13 8 8 9 8 10 13 16 17 15 14 11 9 5 1 2 4 7 12 16 14 17 17 19 21 24 23 26 25 31 25
14 11 6 6 7 11 11 11 4 6 7 11 16 16 17 10 9 9 9 12 15 17 15 15 12 8 4 2 3 5 8 13 16 16 17 19 21 24 26 27 31 29 28 31
7 7 6 9 9 5 13 8 6 8 11 11 4 13 5 14 11 10 11 13 14 15 17 13 11 8 4 3 4 6 9 12 12 16 18 21 25 29 30 31 30 32 33 35
5 4 7 8 4 3 10 6 8 12 13 16 19 10 12 12 10 10 10 12 14 14 11 11 10 6 5 5 7 8 10 12 14 17 19 23 27 29 30 32 33 34 34 26
6 4 6 9 5 5 10 10 14 15 16 15 20 15 8 11 6 11 12 12 13 10 11 9 7 7 7 9 10 11 13 13 17 19 22 25 28 31 31 32 32 31 32 33
7 11 4 8 12 9 10 13 12 12 12 9 6 5 6 7 6 9 10 13 12 10 11 10 11 12 9 13 13 14 15 18 19 22 25 27 29 30 30 28 32 32 30 29
11 5 6 4 9 12 7 8 9 15 11 13 5 8 6 11 8 8 7 7 12 11 11 12 12 12 14 15 12 16 17 18 22 25 29 29 30 30 28 33 30 28 29 31
13 3 6 1 5 6 3 9 7 10 15 14 14 4 11 10 8 5 5 6 4 6 9 12 13 15 15 14 16 16 20 21 24 28 30 32 30 30 33 28 29 29 31 29
11 10 8 10 4 10 11 9 9 8 11 13 11 14 11 8 7 6 5 4 5 8 10 13 15 15 16 15 20 22 20 20 21 29 31 33 28 30 26 25 25 27 28 28
12 9 7 4 11 10 5 9 5 2 7 11 11 2 8 7 8 8 10 10 11 10 14 16 15 17 21 25 26 26 20 21 27 28 33 31 32 24 23 25 25 23 25 23
7 7 11 3 1 5 8 13 11 9 10 10 8 11 10 6 8 9 12 10 8 12 16 20 23 25 26 25 23 22 22 24 21 28 32 30 25 23 25 27 22 21 22 19
9 6 8 14 5 0 8 3 5 5 7 11 10 6 5 4 7 7 8 11 14 17 21 23 24 24 25 28 27 25 19 22 27 29 27 26 24 27 23 21 20 20 17 16
1 8 14 11 15 1 9 9 7 7 7 12 11 13 4 8 9 13 15 17 20 23 26 25 26 26 25 25 24 23 22 24 23 23 22 19 22 23 19 16 16 16 15 13
4 10 13 16 12 9 15 14 13 13 12 12 13 12 13 11 11 13 16 23 26 27 22 26 30 32 33 30 27 23 20 27 20 17 19 18 21 11 11 12 13 14 14 11
2 9 10 13 15 16 12 14 13 11 10 11 10 9 10 10 10 17 21 25 21 23 28 30 31 32 31 26 24 20 21 15 19 16 15 17 11 10 11 11 10 12 11 10
5 8 9 13 10 9 12 8 6 2 2 5 9 11 12 13 20 23 23 17 22 25 28 29 29 29 25 25 23 16 12 20 13 15 8 8 9 13 12 11 11 11 10 9
10 5 9 8 11 8 3 4 6 6 6 4 4 10 12 19 19 20 14 17 21 25 26 26 23 24 22 20 15 12 12 13 9 5 7 10 12 11 10 9 9 8 7 8
9 10 3 2 6 13 10 3 4 7 10 9 8 11 18 20 19 7 18 23 24 22 24 20 21 20 18 18 17 8 7 4 4 7 9 11 9 11 9 9 10 10 9 9
5 9 5 8 7 7 7 4 5 5 3 9 12 17 18 20 11 12 27 25 22 22 19 22 20 18 15 11 9 8 10 4 7 8 9 10 10 11 11 10 10 11 10 11
6 6 10 8 6 2 7 5 4 5 5 14 18 17 18 12 16 22 23 23 18 16 18 17 15 15 12 8 8 6 5 7 8 7 8 10 14 10 14 14 9 10 12 13
5 3 3 5 9 6 5 2 5 8 14 16 15 16 16 19 21 22 23 17 15 15 17 14 12 11 12 13 7 8 9 10 8 7 9 11 13 12 11 13 12 13 14 15
3 5 3 4 3 3 8 7 7 9 12 14 16 17 18 19 21 22 16 15 12 16 13 10 8 11 8 8 8 9 10 9 10 11 12 12 14 14 13 13 13 14 15 16
3 2 4 3 4 4 6 8 7 11 10 13 14 16 18 20 19 17 16 8 14 11 8 6 9 8 7 9 8 8 8 11 10 9 9 10 10 10 12 12 14 13 15 15
5 1 3 5 5 7 4 7 9 11 12 14 15 16 17 16 17 12 11 12 11 5 4 8 4 6 6 7 8 7 9 9 10 9 8 11 10 7 8 12 14 14 20 16
4 2 2 2 8 5 9 8 8 11 13 14 16 16 15 11 11 12 12 9 2 3 11 4 5 3 6 7 8 8 9 10 12 10 11 10 11 11 9 11 5 14 17 13

GFSCGP_850_spd_234.txt.gz
Wind_Speed
16 10 13 16 15 16 18 14 16 10 11 8 7 12 13 16 10 11 15 18 18 18 18 15 13 9 9 6 1 1 4 7 7 9 13 14 17 17 21 20 20 23 28 28
7 13 13 7 10 13 17 10 16 2 8 3 6 14 14 15 11 11 12 13 12 19 18 17 14 10 8 4 2 1 3 8 10 10 13 15 19 23 21 22 24 29 25 28
11 13 5 7 10 10 14 14 17 10 7 2 8 16 19 19 14 10 12 9 11 16 19 15 15 12 8 7 2 3 4 9 9 16 14 17 25 22 24 26 30 26 32 34
8 5 8 8 10 12 13 11 14 7 11 11 14 15 17 9 15 11 9 8 9 10 14 11 15 15 8 4 4 5 6 10 10 17 19 23 23 26 30 30 33 34 31 31
10 4 3 9 8 9 11 10 12 14 14 16 18 14 17 19 14 13 8 9 7 10 11 15 10 9 7 4 6 9 6 10 11 16 21 25 26 30 33 37 33 27 28 33
12 2 7 10 9 8 11 14 15 16 15 14 5 11 13 5 4 10 14 11 9 11 10 7 7 3 7 9 12 8 9 8 12 17 27 23 26 30 36 29 28 33 34 34
4 16 6 2 10 11 9 10 10 12 10 8 5 4 11 16 9 4 17 13 12 11 7 7 9 8 13 7 9 12 13 16 18 23 20 22 26 30 24 30 33 38 35 35
11 7 4 4 4 8 11 6 8 15 13 9 7 6 6 13 18 17 14 14 9 12 4 2 11 10 13 13 12 11 9 15 23 17 17 23 22 20 27 32 39 32 29 31
9 8 3 6 5 7 8 7 7 9 13 13 12 5 10 6 9 12 11 10 8 6 3 7 9 10 7 16 19 25 30 26 14 20 21 17 23 28 32 35 31 31 30 27
8 14 15 7 1 9 11 10 9 7 9 12 11 10 2 3 10 12 13 11 11 9 10 10 6 12 18 19 17 14 17 11 14 14 17 25 27 31 30 28 27 30 25 27
12 11 14 16 3 11 3 8 3 4 4 10 11 4 9 8 8 7 9 14 9 8 12 14 18 20 15 18 22 19 17 17 18 18 22 26 31 30 29 29 27 25 25 24
9 5 9 17 10 12 13 15 12 7 10 9 8 5 10 5 9 6 8 8 11 13 17 19 21 21 25 24 26 22 23 19 16 19 22 29 26 22 24 24 23 22 24 22
11 4 7 9 7 7 7 11 2 5 4 8 10 8 9 5 12 13 12 12 14 17 20 20 21 24 27 28 25 23 21 20 20 22 25 31 24 26 23 17 18 18 16 13
2 6 12 12 16 8 6 11 10 7 6 9 11 15 8 12 3 7 12 12 17 20 19 22 24 26 28 28 31 24 22 20 21 21 24 22 21 18 12 13 16 18 19 16
3 8 13 16 18 18 16 13 14 15 13 10 14 10 12 12 9 13 19 21 21 18 22 25 26 28 28 30 31 29 23 20 22 25 21 20 16 13 13 15 14 16 16 15
2 8 11 14 18 16 17 13 11 14 15 12 8 5 11 13 18 21 20 19 20 21 23 23 24 25 24 24 25 23 21 18 21 17 16 13 12 15 18 15 15 17 16 13
10 7 8 13 16 17 11 8 8 5 6 6 5 7 8 12 18 18 17 18 18 19 18 20 22 20 23 22 22 19 19 17 18 10 12 16 17 16 15 15 13 14 13 11
7 9 6 8 11 9 4 6 6 4 8 12 11 11 14 17 17 14 15 17 14 13 15 18 17 20 21 15 20 15 13 11 9 13 14 14 13 15 12 12 13 13 13 12
9 6 4 3 5 12 2 10 11 9 13 14 12 13 18 18 15 14 21 14 12 12 13 13 14 17 18 15 13 13 9 12 13 13 12 14 15 14 17 13 13 13 12 13
5 6 6 8 8 8 6 4 3 10 2 14 14 16 14 15 9 11 22 17 15 14 22 19 17 15 15 12 10 11 11 13 13 12 13 11 15 13 17 15 12 14 14 13
3 4 10 9 7 5 3 7 9 6 5 13 15 14 13 11 11 16 18 15 13 14 17 15 13 11 12 12 12 12 13 13 11 11 10 13 17 14 16 14 14 13 14 16
4 3 3 4 8 8 13 4 6 5 9 11 14 15 15 16 17 16 15 15 12 14 17 13 8 9 11 10 12 11 12 12 12 11 11 13 15 15 15 14 14 16 17 17
4 5 3 2 1 5 6 8 8 7 10 13 15 15 17 18 17 16 15 11 11 17 11 7 7 8 11 10 10 12 13 14 12 10 11 11 12 13 15 16 15 10 10 14
2 10 4 3 5 9 6 10 11 10 12 12 15 17 16 15 16 14 9 10 14 9 7 7 8 10 8 9 11 10 12 13 11 11 11 12 13 9 9 9 13 20 16 12
5 3 4 4 7 10 11 9 11 12 14 15 14 13 14 13 11 9 9 10 8 5 8 9 7 5 8 10 9 11 10 16 17 9 11 12 14 9 9 11 13 17 17 16
5 4 1 2 7 6 9 8 10 12 13 11 12 12 10 9 9 10 10 7 7 10 5 4 3 7 10 13 15 14 13 14 15 13 9 12 10 11 11 12 10 12 15 13

GFSCGP_850_spd_237.txt.gz
Wind_Speed
17 3 8 14 12 11 7 5 8 7 6 5 7 5 8 19 15 15 17 17 24 36 34 29 25 20 15 10 5 5 9 5 5 7 8 11 16 21 20 20 21 26 25 22
6 9 14 5 3 6 8 8 9 3 5 4 6 5 6 9 18 22 19 18 20 38 33 28 24 18 13 11 8 6 9 8 9 9 11 14 19 26 31 36 37 34 32 28
5 4 8 7 7 8 6 4 6 6 4 4 3 5 8 10 13 24 13 6 34 38 34 28 23 18 15 11 8 8 8 10 10 14 18 21 26 32 37 37 39 33 30 30
5 3 5 5 6 5 5 8 9 11 8 2 3 5 4 13 11 7 11 14 33 34 30 25 22 19 15 8 3 7 9 7 8 13 17 22 27 33 36 35 36 32 34 33
8 7 9 7 5 7 5 8 7 6 8 6 10 5 6 11 10 16 19 14 28 26 24 28 27 23 8 5 9 10 6 6 7 11 17 23 23 27 29 30 30 29 40 38
8 9 3 2 7 7 5 7 8 6 2 4 4 5 5 7 5 5 29 13 17 22 24 16 6 4 10 4 8 7 2 1 9 14 22 28 21 23 27 26 31 41 40 31
8 9 8 8 6 7 7 4 4 5 5 4 5 5 3 4 11 12 7 1 31 21 16 13 9 6 10 9 5 3 5 9 25 28 17 13 13 18 19 28 39 40 32 30
5 7 7 4 1 2 6 1 4 2 3 4 3 2 4 1 17 23 26 27 21 14 6 7 9 8 7 11 10 10 17 16 15 13 13 15 16 20 26 35 33 29 28 30
3 4 14 15 2 5 6 5 3 1 4 3 4 6 8 7 4 14 23 25 23 20 17 15 16 17 13 11 16 18 17 17 11 13 15 17 21 27 37 34 26 27 26 24
5 5 4 9 3 5 5 4 6 4 3 3 4 3 1 6 8 9 15 18 17 18 21 23 24 21 19 17 13 12 12 14 13 15 18 23 27 34 33 22 25 24 24 24
7 0 7 8 3 4 5 5 7 3 3 4 1 3 7 7 6 8 13 16 17 18 21 25 25 22 17 14 14 14 14 14 15 16 20 24 30 28 21 23 22 20 22 22
1 2 3 8 9 1 2 3 2 5 5 1 4 4 2 9 11 14 13 13 15 17 19 20 20 18 19 22 24 26 28 26 23 23 25 32 30 21 20 16 12 17 21 18
3 4 4 8 5 6 4 10 6 3 3 2 3 3 7 14 15 12 11 15 20 27 24 20 19 21 26 31 34 36 34 25 16 20 27 25 20 18 12 11 14 16 20 18
4 0 2 4 8 7 6 2 11 2 3 5 5 2 8 7 2 15 20 24 22 23 20 19 22 28 34 36 32 31 25 20 20 22 22 21 17 14 14 17 17 16 18 18
4 1 4 7 11 14 15 12 10 2 4 5 8 3 8 1 7 19 20 20 20 19 17 19 24 31 35 30 28 25 21 19 20 20 18 18 19 19 19 18 17 17 19 15
4 3 4 4 10 13 16 11 13 7 7 5 15 12 11 15 21 22 19 16 15 14 14 19 29 32 26 23 23 25 18 16 16 15 19 21 19 21 20 17 16 16 15 13
1 3 5 4 6 9 6 5 6 10 16 10 11 7 14 10 17 13 12 12 13 13 16 22 27 23 20 17 17 18 17 13 15 18 19 20 18 18 18 16 16 15 13 12
4 2 1 3 4 2 1 16 15 19 14 13 12 10 15 14 16 17 12 8 7 8 15 22 20 17 17 15 13 12 14 16 18 19 19 16 18 17 19 15 13 14 14 12
7 4 2 2 2 6 5 6 7 6 7 12 8 11 18 15 6 21 13 9 5 8 16 16 12 12 12 14 14 14 19 18 14 15 13 18 17 17 21 15 14 15 14 13
2 5 4 1 1 2 4 8 8 3 2 14 14 15 15 13 3 2 9 9 10 16 22 15 12 9 11 13 14 16 18 17 14 13 13 17 19 14 17 14 14 12 14 13
2 2 5 4 4 2 12 16 20 1 2 11 13 10 12 8 11 10 8 8 12 22 16 10 9 12 14 14 16 16 16 15 14 14 14 16 15 16 14 11 10 11 13 15
1 3 1 2 3 3 5 9 5 1 11 16 17 15 15 13 13 12 11 12 17 17 11 5 9 13 14 14 14 14 14 14 13 11 10 13 11 14 13 12 14 13 8 10
3 2 1 4 3 10 13 13 17 14 18 18 16 14 12 11 11 11 13 13 14 10 6 8 14 14 12 11 12 12 15 16 16 14 11 14 14 10 9 13 16 20 11 11
3 4 3 4 3 6 15 17 16 16 14 13 12 10 12 11 10 10 9 10 10 6 9 11 14 12 12 14 17 13 11 21 19 11 7 13 13 12 11 12 17 17 17 16
5 3 4 7 11 18 15 13 11 10 7 7 11 13 11 7 10 10 9 7 7 10 11 13 13 13 13 12 14 16 14 15 15 14 12 13 11 9 10 13 15 16 15 16
3 1 3 3 6 13 13 11 9 7 9 10 9 10 9 9 9 10 9 8 10 12 13 12 11 14 13 14 14 16 16 17 13 14 13 13 9 10 10 9 10 13 11 14

GFSCGP_850_spd_240.txt.gz
Wind_Speed
9 3 6 11 7 6 3 5 6 5 5 4 2 6 8 10 10 14 17 35 33 34 39 37 34 28 23 16 8 3 6 5 8 8 7 7 9 13 21 26 27 29 31 32
4 7 14 7 10 6 3 2 6 4 9 5 3 2 2 9 8 19 20 25 28 34 39 38 31 24 15 12 10 9 6 3 6 7 8 9 12 18 25 27 26 29 34 36
5 6 2 4 5 7 4 5 4 2 6 6 7 6 12 7 23 19 7 22 36 41 38 33 28 19 16 12 7 3 3 7 10 10 10 11 15 23 29 29 28 33 34 36
2 7 5 7 5 3 4 1 5 5 5 1 5 3 5 7 12 13 24 18 27 29 33 29 24 23 16 5 2 5 5 9 8 9 10 15 25 29 25 25 27 31 32 37
6 5 2 4 1 3 5 2 4 2 2 3 6 5 5 5 8 8 15 14 13 18 17 23 21 13 5 4 5 5 6 5 6 9 17 24 19 17 19 21 25 29 36 37
5 11 3 2 2 5 4 4 7 5 2 3 4 4 4 3 3 5 17 21 16 14 13 14 9 7 6 8 10 9 4 3 9 15 11 9 13 15 17 20 25 33 37 32
5 6 5 9 6 7 10 7 4 5 5 4 3 4 5 2 5 7 18 24 18 10 7 7 11 10 10 10 8 1 4 10 8 9 10 11 12 13 17 25 32 34 32 28
2 5 6 8 2 4 1 6 4 2 2 5 5 4 3 3 15 23 24 21 20 16 12 13 16 15 14 12 6 4 3 5 4 7 10 13 16 20 25 29 30 27 26 23
3 4 6 8 5 2 4 2 4 4 3 3 2 2 4 7 11 17 18 20 21 27 31 30 25 21 16 12 11 9 9 11 13 16 20 22 24 27 31 33 27 22 20 21
4 3 3 6 6 6 5 3 5 4 2 3 2 2 4 6 6 8 14 24 30 29 25 21 18 15 13 12 12 14 16 17 19 21 22 24 26 30 29 23 17 13 18 22
2 3 6 4 2 4 5 3 4 4 4 4 1 4 4 7 5 8 18 26 30 26 21 17 14 14 16 21 26 28 28 25 22 19 19 23 27 24 17 14 10 13 16 17
0 3 2 5 6 1 4 3 4 5 5 2 4 4 5 4 12 23 24 27 23 19 16 15 17 21 27 31 33 31 25 20 13 14 18 22 21 18 13 12 13 13 15 16
0 2 3 8 7 6 4 7 4 4 3 3 4 4 1 10 18 16 22 20 15 11 10 13 17 24 30 32 29 23 20 16 15 15 17 16 15 15 16 15 14 13 15 15
4 3 5 5 6 4 6 10 6 5 3 5 5 5 4 8 12 17 18 12 11 9 11 15 21 27 29 26 21 19 16 15 15 14 15 15 16 17 17 15 14 15 15 13
4 2 2 4 5 4 5 9 8 4 7 5 5 6 3 7 11 13 13 11 9 9 13 17 20 24 22 17 16 15 14 13 14 14 16 16 15 17 18 16 16 16 15 13
3 2 2 4 5 6 6 9 5 6 5 11 16 9 5 14 14 9 9 8 8 11 11 15 21 19 16 15 14 14 13 13 16 16 16 16 18 19 20 16 15 14 13 13
4 4 3 4 5 5 5 7 12 12 11 6 6 3 8 5 7 6 6 3 2 3 11 18 16 13 14 12 13 13 13 12 13 16 15 18 18 17 20 14 14 14 14 12
6 5 3 3 4 2 3 11 15 16 11 7 7 5 5 12 11 8 4 3 2 8 16 16 13 12 11 12 11 11 13 12 13 14 15 18 17 17 17 13 14 14 13 11
7 5 2 3 3 4 3 6 6 1 5 6 6 8 12 15 12 8 3 3 8 13 16 13 10 9 10 11 12 13 14 13 13 13 14 14 17 16 15 12 10 11 13 11
5 4 4 3 2 3 1 12 14 5 3 12 11 9 5 4 3 1 2 5 10 17 12 8 9 10 11 11 12 13 13 12 11 11 13 13 14 17 12 12 13 12 10 11
2 3 3 1 1 2 3 8 20 4 4 1 10 9 6 3 1 4 3 8 11 13 8 6 7 11 10 10 11 12 11 13 14 14 12 12 12 11 11 13 16 12 6 7
2 3 1 2 2 3 3 3 3 6 14 10 9 8 9 6 2 1 6 8 11 9 8 7 9 10 10 14 15 12 11 14 15 15 10 9 12 13 13 15 14 11 8 10
1 5 4 4 4 3 4 9 12 13 13 9 7 6 6 4 4 5 6 9 10 7 9 10 10 9 10 12 15 14 20 15 17 8 6 7 9 12 12 12 14 15 11 11
3 2 4 4 2 10 17 16 14 8 8 5 6 8 8 6 6 6 6 5 6 8 8 8 10 13 11 12 12 14 10 15 13 10 9 8 8 9 10 14 14 16 14 15
4 3 4 4 9 16 11 13 8 8 6 6 7 8 8 6 8 9 8 11 11 8 8 12 12 12 14 11 11 14 13 12 11 13 10 10 9 9 11 12 14 15 17 17
3 5 4 4 12 6 11 10 4 3 5 6 7 7 7 7 7 7 11 13 10 10 13 11 12 10 11 12 10 14 11 13 11 10 10 9 10 10 10 11 10 12 12 13

GFSCGP_850_spd_246.txt.gz
Wind_Speed
4 5 3 7 5 4 2 1 2 4 5 6 4 6 11 16 16 8 12 12 17 23 26 27 28 30 28 23 18 9 3 6 7 7 5 17 14 14 16 18 24 26 24 25
6 4 5 4 4 4 3 3 4 4 5 6 2 7 5 15 12 10 3 21 25 25 24 24 25 29 25 20 12 2 2 5 5 12 11 18 16 17 18 23 25 25 26 27
4 4 2 5 4 6 2 3 2 4 4 5 3 4 6 5 17 19 12 13 18 24 25 25 28 27 22 15 7 6 5 10 15 10 15 17 17 21 21 24 24 24 25 27
2 5 3 6 3 3 2 2 2 3 3 2 3 4 5 7 9 14 15 13 14 18 21 25 26 23 21 11 5 23 18 18 10 11 17 17 20 23 25 26 25 24 26 30
4 6 5 6 3 0 3 3 2 2 2 3 7 4 5 4 5 5 7 12 14 15 20 24 24 18 14 6 11 10 11 16 16 14 19 21 23 26 27 26 27 28 30 30
2 4 4 1 1 3 3 1 5 4 2 2 3 4 4 2 1 2 4 9 15 18 18 16 15 12 7 7 9 13 14 15 14 17 21 23 26 28 28 27 28 31 33 31
5 3 5 3 5 5 9 7 4 5 5 4 4 2 6 4 4 4 9 12 14 16 17 12 5 1 4 3 5 6 7 10 13 20 22 23 23 23 25 29 32 32 29 22
1 5 4 6 2 4 3 6 5 5 3 5 3 4 4 3 10 14 15 13 12 13 10 11 14 13 11 9 5 5 8 13 19 23 23 24 25 27 27 28 24 19 15 14
2 4 5 3 3 1 2 2 1 5 3 2 3 2 2 5 7 12 12 13 14 18 20 17 13 11 9 9 11 15 18 20 21 23 22 22 22 21 19 15 14 13 12 13
2 2 2 6 5 5 3 2 3 4 1 4 4 4 5 5 5 6 11 18 21 20 18 14 9 7 12 16 19 21 22 20 17 15 15 14 14 12 11 11 12 12 12 13
2 3 6 3 4 2 5 5 4 3 3 3 3 5 3 6 6 9 14 20 19 15 11 7 6 10 13 17 20 21 19 16 13 12 10 9 9 11 12 13 13 14 13 14
1 4 2 5 3 3 2 3 4 4 5 1 2 6 5 6 15 20 20 19 12 8 6 9 8 9 16 20 21 20 17 12 10 7 8 10 10 12 12 12 11 12 13 13
3 2 3 8 6 5 4 2 3 3 3 4 2 5 4 10 13 11 17 13 7 2 6 6 12 15 19 19 17 14 11 8 7 9 11 10 10 11 13 14 12 13 12 12
3 3 6 5 7 3 4 5 3 4 2 3 6 4 1 6 6 10 8 7 1 3 6 11 15 18 19 18 14 12 5 8 9 10 9 11 11 14 16 13 11 12 12 12
4 2 3 4 5 2 4 5 5 2 3 3 6 1 3 4 6 8 6 3 3 7 9 13 19 21 19 15 8 7 8 10 10 9 9 11 12 14 15 12 13 14 13 12
3 1 1 3 2 5 1 6 3 4 3 3 5 5 1 7 8 7 10 13 7 3 7 16 21 21 15 8 8 11 12 11 9 7 10 13 14 16 16 14 15 15 14 11
2 5 3 4 3 3 3 4 4 3 6 2 4 3 1 2 3 3 6 6 2 7 14 20 20 13 7 9 10 11 11 10 8 7 11 12 14 17 18 16 15 15 15 13
6 5 2 3 4 1 0 5 8 7 4 3 4 3 2 4 6 8 5 3 6 11 18 19 10 6 7 9 10 10 10 9 10 11 11 12 14 16 17 18 17 18 17 15
3 4 3 3 1 2 3 2 2 0 3 2 1 5 6 6 5 6 5 5 10 16 17 10 7 9 9 10 11 13 13 14 15 16 16 15 14 15 16 18 19 20 16 16
5 5 4 2 2 2 2 3 7 5 4 7 3 6 9 2 2 3 5 7 13 14 10 3 7 9 9 12 15 14 16 19 19 20 19 15 13 14 15 18 19 19 19 17
4 4 3 3 3 4 3 5 5 3 4 2 2 3 3 1 5 5 4 9 10 7 5 6 8 10 13 15 15 14 16 19 20 19 17 12 10 12 15 17 19 19 17 13
2 2 1 1 1 3 2 2 2 2 3 3 2 4 5 4 3 4 6 6 6 6 8 10 11 12 13 14 17 18 17 17 19 16 16 13 13 12 12 16 18 18 13 12
1 4 3 5 4 2 3 1 5 3 4 2 5 6 6 5 5 6 7 5 6 8 9 11 13 14 11 15 16 19 19 19 16 15 13 13 11 13 17 16 15 17 15 15
0 2 2 3 1 1 5 8 6 5 4 4 5 6 6 5 6 6 8 9 8 9 10 12 15 14 15 16 13 16 19 17 14 11 13 11 13 15 15 16 16 14 16 21
2 4 3 2 1 4 6 5 5 4 4 5 7 6 6 6 8 10 10 9 9 10 13 14 14 13 16 13 13 17 18 16 13 11 12 13 16 13 14 15 14 13 15 18
4 6 4 5 8 4 6 11 6 2 4 5 7 4 6 7 11 10 9 9 11 14 15 13 13 15 16 15 16 17 17 16 14 12 14 12 12 13 12 12 13 16 18 19